Home   Weather   Newport   Past weeks

Flag for United Kingdom Past Weather in Newport, Wales, United Kingdom — Yesterday and Last 2 Weeks

Now
30 °F

Chilly.


Feels Like: 23 °F
Forecast: N/A
Wind: 8 mph from East

Location: Bristol / Lulsgate

Current Time: Dec 4, 2016 at 8:42:26 pm

Latest Report: Dec 4, 2016 at 8:20 pm


Visibility: N/A

Pressure: 30.18 "Hg

Humidity: 93%

Dew Point: 28 °F

Location of NewportLocation

Past Weather in Newport — Graph

°F

Newport Temperature Yesterday

Maximum temperature yesterday: 43 °F (at 12:20 pm)
Minimum temperature yesterday: 34 °F (at 9:20 pm)
Average temperature yesterday: 38 °F

High & Low Weather Summary for the Past Weeks

 TemperatureHumidityPressure
High48 °F (Nov 21, 4:50 pm)100% (Nov 19, 7:20 pm)30.57 "Hg (Nov 19, 7:20 pm)
Low25 °F (Nov 29, 3:50 am)53% (Nov 28, 2:20 pm)28.74 "Hg (Nov 20, 2:20 am)
Average39 °F89%30.06 "Hg
* Reported Nov 19 7:20 pm — Dec 4 7:20 pm, Newport, Weather by CustomWeather, © 2016

Note: Actual official high and low records may vary slightly from our data, if they occured in-between our weather recording intervals... More about our weather records

Advertising

Newport Weather History for the Previous 24 Hours

Scroll right to see more
 ConditionsComfort  
Time TempWeatherWind HumidityBarometerVisibility
7:20 pm
Sun, Dec 4
34 °FChilly.10 mph87%30.15 "HgN/A
6:50 pm34 °FChilly.10 mph93%30.15 "HgN/A
6:20 pm36 °FChilly.12 mph87%30.15 "HgN/A
5:50 pm36 °FChilly.13 mph87%30.15 "HgN/A
5:20 pm36 °FChilly.12 mph87%30.15 "HgN/A
4:50 pm37 °FChilly.15 mph87%30.15 "HgN/A
4:20 pm37 °FChilly.12 mph87%30.15 "HgN/A
3:50 pm37 °FChilly.13 mph87%30.12 "HgN/A
3:20 pm39 °FChilly.12 mph81%30.12 "HgN/A
2:50 pm39 °FChilly.15 mph81%30.12 "HgN/A
2:20 pm41 °FQuite cool.14 mph76%30.12 "HgN/A
1:50 pm41 °FQuite cool.15 mph76%30.12 "HgN/A
1:20 pm39 °FChilly.18 mph81%30.12 "HgN/A
12:50 pm39 °FChilly.16 mph81%30.12 "HgN/A
12:20 pm39 °FChilly.15 mph81%30.15 "HgN/A
11:50 am37 °FChilly.18 mph87%30.15 "HgN/A
11:20 am37 °FChilly.17 mph87%30.15 "HgN/A
10:50 am36 °FChilly.17 mph87%30.18 "HgN/A
10:20 am34 °FChilly.14 mph93%30.18 "HgN/A
9:50 am34 °FChilly.16 mph93%30.18 "HgN/A
9:20 am32 °FChilly.17 mph93%30.18 "HgN/A
8:50 am32 °FChilly.17 mph93%30.18 "HgN/A
8:20 am30 °FChilly.14 mph100%30.18 "HgN/A
7:50 am32 °FChilly.13 mph93%30.18 "HgN/A
7:20 am32 °FChilly.16 mph93%30.18 "HgN/A
6:50 am32 °FChilly.17 mph93%30.18 "HgN/A
6:20 am32 °FChilly.15 mph87%30.18 "HgN/A
5:50 am32 °FChilly.14 mph87%30.18 "HgN/A
5:20 am32 °FChilly.15 mph93%30.18 "HgN/A
4:50 am32 °FChilly.14 mph93%30.18 "HgN/A
4:20 am32 °FChilly.14 mph87%30.18 "HgN/A
3:50 am32 °FChilly.15 mph93%30.18 "HgN/A
3:20 am32 °FChilly.15 mph93%30.18 "HgN/A
2:50 am32 °FChilly.15 mph93%30.18 "HgN/A
2:20 am32 °FChilly.12 mph93%30.18 "HgN/A
1:50 am32 °FChilly.13 mph93%30.18 "HgN/A
1:20 am34 °FChilly.16 mph87%30.18 "HgN/A
12:50 am34 °FChilly.14 mph87%30.18 "HgN/A
12:20 am34 °FChilly.14 mph87%30.18 "HgN/A
11:50 pm
Sat, Dec 3
34 °FChilly.15 mph87%30.18 "HgN/A
11:20 pm34 °FChilly.16 mph87%30.18 "HgN/A
10:50 pm34 °FChilly.15 mph87%30.18 "HgN/A
10:20 pm34 °FChilly.14 mph87%30.18 "HgN/A
9:50 pm34 °FChilly.14 mph87%30.18 "HgN/A
9:20 pm34 °FChilly.16 mph87%30.21 "HgN/A
8:50 pm36 °FChilly.15 mph81%30.21 "HgN/A
8:20 pm36 °FChilly.12 mph81%30.21 "HgN/A
Weather by CustomWeather, © 2016

See weather overviewHow to use our weather pages